Greybull, WY

8:57 AM MST on December 14, 2019 (GMT -0700)
South Big Horn County

Weather History for KGEY - October, 2019

Change the Weather History Date:

Tuesday, October 15, 2019

  Actual Average Record
Temperature  
Mean Temperature 42 °F 46 °F  
Max Temperature 55 °F 60 °F 80 °F (2014)
Min Temperature 30 °F 33 °F 17 °F (2018)
Degree Days  
Heating Degree Days 22 19  
Month to date heating degree days 239  
Since 1 July heating degree days 470  
Cooling Degree Days 0 0  
Month to date cooling degree days 0  
Year to date cooling degree days 669  
Moisture  
Dew Point 28 °F    
Average Humidity 57    
Maximum Humidity 82    
Minimum Humidity 34    
Precipitation  
Precipitation 0.00 in 0.02 in 0.12 in (2004)
Month to date precipitation 0.37  
Year to date precipitation 6.70  
Sea Level Pressure  
Sea Level Pressure 30.22 in    
Wind  
Wind Speed 9 mph (SE)    
Max Wind Speed 20 mph    
Max Gust Speed -    
Visibility 10 miles    
Events Rain , Snow    
T = Trace of Precipitation, MM = Missing Value Source: NWS Daily Summary

Daily Weather History Graph

Daily Weather History Graph

Search for Another Location

Airport or City:

Astronomy

Oct. 15, 2019 Rise Set
Actual Time 7:27 AM MDT 6:28 PM MDT
Civil Twilight 6:57 AM MDT 6:57 PM MDT
Nautical Twilight 6:24 AM MDT 7:31 PM MDT
Astronomical Twilight 5:50 AM MDT 8:04 PM MDT
Moon 7:46 PM MDT (10/15) 9:03 AM MDT (10/15)
Length of Visible Light 11h 59m
Length of Day
11h 00m
Full, 97% of the Moon is Illuminated
Oct 15
Full
Oct 21
Last Quarter
Oct 27
New
Nov 4
First Quarter
Nov 12
Full

Hourly Weather History & Observations

Time (MDT) Temp. Windchill Dew Point Humidity Pressure Visibility Wind Dir Wind Speed Gust Speed Precip Events Conditions
12:53 AM 44.1 °F 35.9 °F 26.1 °F 49% 30.11 in 10.0 mi NW 19.6 mph - 0.00 in Rain Light Rain
1:53 AM 43.0 °F 35.1 °F 25.0 °F 49% 30.14 in 10.0 mi NW 17.3 mph - 0.00 in Rain Light Rain
2:53 AM 39.0 °F 31.4 °F 26.1 °F 60% 30.17 in 10.0 mi NW 12.7 mph - 0.00 in Rain Light Rain
3:53 AM 37.0 °F 29.3 °F 26.1 °F 65% 30.19 in 10.0 mi WNW 11.5 mph - 0.00 in   Clear
4:53 AM 36.0 °F - 27.0 °F 70% 30.21 in 10.0 mi North - - 0.00 in   Clear
5:53 AM 32.0 °F - 26.1 °F 79% 30.25 in 9.0 mi Calm Calm - 0.00 in   Clear
6:53 AM 32.0 °F - 27.0 °F 82% 30.28 in 10.0 mi Calm Calm - 0.00 in   Clear
7:53 AM 30.9 °F 27.5 °F 26.1 °F 82% 30.31 in 9.0 mi ESE 3.5 mph - 0.00 in Snow Light Snow
8:53 AM 33.1 °F 30.0 °F 27.0 °F 78% 30.32 in 9.0 mi SE 3.5 mph - 0.00 in Snow Light Snow
9:53 AM 37.9 °F - 28.9 °F 70% 30.32 in 10.0 mi Calm Calm - 0.00 in   Clear
10:53 AM 42.1 °F 39.2 °F 28.9 °F 60% 30.31 in 10.0 mi SSE 4.6 mph - N/A   Clear
11:53 AM 46.0 °F 44.8 °F 28.0 °F 50% 30.28 in 10.0 mi Variable 3.5 mph - N/A   Clear
12:53 PM 48.9 °F - 28.0 °F 44% 30.25 in 10.0 mi ESE 4.6 mph - N/A   Clear
1:53 PM 51.1 °F - 28.0 °F 41% 30.22 in 10.0 mi Variable 4.6 mph - N/A   Clear
2:53 PM 54.0 °F - 27.0 °F 35% 30.20 in 10.0 mi Variable 4.6 mph - N/A   Clear
3:53 PM 54.0 °F - 27.0 °F 35% 30.19 in 10.0 mi SSE 6.9 mph - N/A   Clear
4:53 PM 55.0 °F - 27.0 °F 34% 30.18 in 10.0 mi SSE 6.9 mph - N/A   Clear
5:53 PM 52.0 °F - 28.0 °F 40% 30.19 in 10.0 mi South 4.6 mph - N/A   Clear
6:53 PM 51.1 °F - 27.0 °F 39% 30.19 in 10.0 mi Calm Calm - N/A   Clear
7:53 PM 46.0 °F 43.9 °F 30.0 °F 54% 30.22 in 10.0 mi ESE 4.6 mph - N/A   Clear
8:53 PM 43.0 °F 40.3 °F 30.9 °F 62% 30.22 in 10.0 mi ESE 4.6 mph - N/A   Clear
9:53 PM 43.0 °F 40.3 °F 30.9 °F 62% 30.20 in 10.0 mi SE 4.6 mph - N/A   Clear
10:53 PM 42.1 °F 40.2 °F 30.9 °F 65% 30.18 in 10.0 mi ESE 3.5 mph - N/A   Clear
11:53 PM 39.9 °F 35.8 °F 30.9 °F 70% 30.16 in 10.0 mi SE 5.8 mph - N/A   Clear